TimeEDT,TemperatureF,Dew PointF,Humidity,Sea Level PressureIn,VisibilityMPH,Wind Direction,Wind SpeedMPH,Gust SpeedMPH,PrecipitationIn,Events,Conditions,WindDirDegrees,DateUTC
12:15 AM,59.9,58.3,94,30.17,5.0,Calm,Calm,-,N/A,,Clear,0,2013-06-09 04:15:00
12:35 AM,59.9,58.6,96,30.17,5.0,Calm,Calm,-,N/A,,Clear,0,2013-06-09 04:35:00
12:55 AM,59.9,58.6,96,30.17,5.0,Calm,Calm,-,N/A,,Scattered Clouds,0,2013-06-09 04:55:00
1:15 AM,59.5,58.3,96,30.17,5.0,Calm,Calm,-,N/A,,Mostly Cloudy,0,2013-06-09 05:15:00
1:35 AM,58.8,57.7,96,30.17,5.0,Calm,Calm,-,N/A,,Scattered Clouds,0,2013-06-09 05:35:00
1:55 AM,58.6,57.7,97,30.16,5.0,Calm,Calm,-,N/A,,Clear,0,2013-06-09 05:55:00
2:15 AM,57.7,56.7,96,30.17,4.0,Calm,Calm,-,N/A,,Scattered Clouds,0,2013-06-09 06:15:00
2:35 AM,58.3,57.4,97,30.16,5.0,Calm,Calm,-,N/A,,Mostly Cloudy,0,2013-06-09 06:35:00
2:55 AM,58.1,57.2,97,30.16,5.0,Calm,Calm,-,N/A,,Scattered Clouds,0,2013-06-09 06:55:00
3:15 AM,57.9,57.0,97,30.16,4.0,Calm,Calm,-,N/A,,Clear,0,2013-06-09 07:15:00
3:35 AM,58.1,57.2,97,30.16,5.0,Calm,Calm,-,N/A,,Clear,0,2013-06-09 07:35:00
3:55 AM,57.6,56.5,96,30.16,5.0,Calm,Calm,-,N/A,,Clear,0,2013-06-09 07:55:00
4:15 AM,57.2,56.3,97,30.16,4.0,Calm,Calm,-,N/A,,Clear,0,2013-06-09 08:15:00
4:35 AM,57.9,56.7,96,30.17,5.0,Calm,Calm,-,N/A,,Scattered Clouds,0,2013-06-09 08:35:00
4:55 AM,57.2,56.3,97,30.17,4.0,Calm,Calm,-,N/A,,Scattered Clouds,0,2013-06-09 08:55:00
5:15 AM,57.2,56.3,97,30.17,4.0,Calm,Calm,-,N/A,,Scattered Clouds,0,2013-06-09 09:15:00
5:35 AM,57.2,56.3,97,30.18,4.0,Calm,Calm,-,N/A,,Clear,0,2013-06-09 09:35:00
5:55 AM,56.8,55.8,96,30.18,4.0,Calm,Calm,-,N/A,,Scattered Clouds,0,2013-06-09 09:55:00
6:15 AM,57.0,55.9,96,30.19,4.0,Calm,Calm,-,N/A,,Mostly Cloudy,0,2013-06-09 10:15:00
6:35 AM,57.6,56.5,96,30.19,5.0,Calm,Calm,-,N/A,,Overcast,0,2013-06-09 10:35:00
6:55 AM,58.1,57.2,97,30.20,5.0,Calm,Calm,-,N/A,,Overcast,0,2013-06-09 10:55:00
7:15 AM,58.5,57.4,96,30.20,4.0,Calm,Calm,-,N/A,,Overcast,0,2013-06-09 11:15:00
7:35 AM,58.6,57.6,96,30.20,4.0,Calm,Calm,-,N/A,,Overcast,0,2013-06-09 11:35:00
7:55 AM,59.5,58.5,96,30.20,5.0,Calm,Calm,-,N/A,,Mostly Cloudy,0,2013-06-09 11:55:00
8:15 AM,60.1,59.2,97,30.20,7.0,Calm,Calm,-,N/A,,Mostly Cloudy,0,2013-06-09 12:15:00
8:35 AM,61.9,60.1,94,30.19,7.0,Calm,Calm,-,N/A,,Scattered Clouds,0,2013-06-09 12:35:00
8:55 AM,63.1,60.6,91,30.19,10.0,Calm,Calm,-,N/A,,Mostly Cloudy,0,2013-06-09 12:55:00
9:15 AM,64.9,59.7,83,30.19,10.0,Calm,Calm,-,N/A,,Scattered Clouds,0,2013-06-09 13:15:00
9:35 AM,66.2,59.7,80,30.19,7.0,Calm,Calm,-,N/A,,Scattered Clouds,0,2013-06-09 13:35:00
9:55 AM,68.5,61.9,79,30.19,10.0,Calm,Calm,-,N/A,,Mostly Cloudy,0,2013-06-09 13:55:00
10:15 AM,69.6,61.5,75,30.18,10.0,ENE,3.5,-,N/A,,Mostly Cloudy,60,2013-06-09 14:15:00
10:35 AM,72.5,63.1,72,30.18,10.0,ENE,3.5,-,N/A,,Scattered Clouds,70,2013-06-09 14:35:00
10:55 AM,74.5,63.7,69,30.17,10.0,ENE,5.8,-,0.02,,Mostly Cloudy,60,2013-06-09 14:55:00
11:15 AM,76.5,64.0,65,30.16,10.0,NE,3.5,-,N/A,,Overcast,40,2013-06-09 15:15:00
11:35 AM,77.2,63.3,62,30.16,10.0,SSE,3.5,-,N/A,,Overcast,150,2013-06-09 15:35:00
11:55 AM,76.8,63.3,63,30.15,10.0,Calm,Calm,-,N/A,,Mostly Cloudy,0,2013-06-09 15:55:00
12:15 PM,77.9,63.0,60,30.15,10.0,Calm,Calm,-,N/A,,Mostly Cloudy,0,2013-06-09 16:15:00
12:35 PM,79.3,61.0,53,30.15,10.0,SE,9.2,19.6,N/A,,Scattered Clouds,140,2013-06-09 16:35:00
12:55 PM,79.7,61.7,54,30.13,10.0,SSE,5.8,-,N/A,,Scattered Clouds,160,2013-06-09 16:55:00
1:15 PM,79.9,61.7,54,30.12,10.0,SSE,6.9,17.3,N/A,,Clear,160,2013-06-09 17:15:00
1:35 PM,79.0,60.8,54,30.11,10.0,SSE,6.9,-,N/A,,Scattered Clouds,150,2013-06-09 17:35:00
1:55 PM,80.4,60.6,51,30.10,10.0,South,9.2,-,N/A,,Scattered Clouds,190,2013-06-09 17:55:00
2:15 PM,81.1,61.5,51,30.09,10.0,South,6.9,-,N/A,,Scattered Clouds,190,2013-06-09 18:15:00
2:35 PM,80.8,61.3,51,30.08,10.0,SSW,6.9,-,N/A,,Mostly Cloudy,200,2013-06-09 18:35:00
2:55 PM,81.1,62.1,52,30.07,10.0,SE,8.1,-,N/A,,Scattered Clouds,140,2013-06-09 18:55:00
3:15 PM,78.3,61.3,56,30.08,10.0,South,10.4,17.3,N/A,,Mostly Cloudy,170,2013-06-09 19:15:00
3:35 PM,73.9,64.2,72,30.08,10.0,SSE,3.5,-,N/A,Rain,Light Rain,150,2013-06-09 19:35:00
3:55 PM,73.6,65.3,75,30.08,10.0,Calm,Calm,-,N/A,,Light Drizzle,0,2013-06-09 19:55:00
4:15 PM,72.3,64.8,77,30.10,3.0,South,6.9,-,N/A,Rain,Heavy Rain,180,2013-06-09 20:15:00
4:35 PM,71.2,65.5,82,30.09,4.0,Calm,Calm,-,N/A,Rain,Rain,0,2013-06-09 20:35:00
4:55 PM,69.3,64.4,84,30.09,5.0,ESE,5.8,-,N/A,Rain,Light Rain,110,2013-06-09 20:55:00
5:15 PM,68.2,63.0,83,30.09,7.0,Calm,Calm,-,N/A,Rain,Light Rain,0,2013-06-09 21:15:00
5:35 PM,67.6,63.3,86,30.11,2.5,Calm,Calm,-,N/A,Rain,Heavy Rain,0,2013-06-09 21:35:00
5:55 PM,67.1,64.6,92,30.10,5.0,Calm,Calm,-,N/A,Rain,Rain,0,2013-06-09 21:55:00
6:15 PM,66.9,64.8,93,30.10,1.5,Calm,Calm,-,N/A,Rain,Heavy Rain,0,2013-06-09 22:15:00
6:35 PM,66.4,64.9,95,30.10,2.5,Calm,Calm,-,N/A,Rain,Heavy Rain,0,2013-06-09 22:35:00
6:55 PM,66.2,64.9,96,30.10,0.8,Calm,Calm,-,N/A,Rain,Heavy Rain,0,2013-06-09 22:55:00
7:15 PM,65.5,64.6,97,30.10,2.5,NE,3.5,-,N/A,Rain,Heavy Rain,50,2013-06-09 23:15:00
7:35 PM,65.5,64.6,97,30.10,3.0,Calm,Calm,-,N/A,Rain,Rain,0,2013-06-09 23:35:00
7:55 PM,65.5,64.6,97,30.10,7.0,Calm,Calm,-,N/A,,Light Drizzle,0,2013-06-09 23:55:00
8:15 PM,65.7,64.8,97,30.10,10.0,ENE,3.5,-,N/A,,Overcast,60,2013-06-10 00:15:00
8:35 PM,65.5,64.6,97,30.10,10.0,ENE,3.5,-,N/A,,Overcast,70,2013-06-10 00:35:00
8:55 PM,65.5,64.6,97,30.09,10.0,Calm,Calm,-,N/A,,Overcast,0,2013-06-10 00:55:00
9:15 PM,65.7,64.8,97,30.09,7.0,Calm,Calm,-,N/A,Rain,Rain,0,2013-06-10 01:15:00
9:35 PM,65.3,64.4,97,30.08,4.0,ENE,4.6,-,N/A,Rain,Rain,60,2013-06-10 01:35:00
9:55 PM,65.3,64.4,97,30.08,10.0,Calm,Calm,-,N/A,,Light Drizzle,0,2013-06-10 01:55:00
10:15 PM,66.0,64.8,96,30.09,10.0,Calm,Calm,-,N/A,,Overcast,0,2013-06-10 02:15:00
10:35 PM,65.1,64.4,98,30.09,10.0,NE,4.6,-,N/A,,Mostly Cloudy,50,2013-06-10 02:35:00
10:55 PM,64.9,64.2,98,30.09,7.0,Calm,Calm,-,N/A,,Overcast,0,2013-06-10 02:55:00
11:15 PM,64.9,64.0,97,30.09,10.0,Calm,Calm,-,N/A,,Overcast,0,2013-06-10 03:15:00
11:35 PM,65.5,64.6,97,30.09,5.0,Calm,Calm,-,N/A,Rain,Rain,0,2013-06-10 03:35:00
11:55 PM,65.3,64.6,98,30.08,7.0,Calm,Calm,-,N/A,Rain,Light Rain,0,2013-06-10 03:55:00